Location: Saint Louis
(38.6272°N, 90.1978°W)
Time: 00:24:25
(UTC-05:00)

ISS - Pass Details

Date: 25 December 2012
Orbit: 401 x 404 km, 51.6° (Epoch: 29 July)

Event Time Altitude Azimuth Distance (km) Brightness Sun altitude
Rises 18:44:51 0° 317° (NW) 2,378 1.0 -22.5°
Reaches altitude 10° 18:47:24 10° 336° (NNW) 1,510 -0.3 -23.0°
Enters shadow 18:47:28 10° 337° (NNW) 1,490 -0.4 -23.0°
